Tracking 29892 objects as of 21-Nov-2024
HD Live streaming from Space Station
objects crossing your sky now

STARLINK-31490

Track STARLINK-31490 now!
10-day predictions
STARLINK-31490 is classified as:


NORAD ID: 59222
Int'l Code: 2024-046X
Perigee: 481.7 km
Apogee: 483.0 km
Inclination: 53.2 °
Period: 94.1 minutes
Semi major axis: 6853 km
RCS: Unknown
Launch date: March 11, 2024
Source: United States (US)
Launch site: AIR FORCE WESTERN TEST RANGE (AFWTR)
Your satellite tracking list
Your tracking list is empty




NASA's NSSDC Master Catalog

Two Line Element Set (TLE):
1 59222U 24046X   24325.09861918 -.00001602  00000-0 -41963-4 0  9992
2 59222  53.1585 200.0421 0001008 103.8615 256.2497 15.30203484 40370
Source of the keplerian elements: AFSPC